Sedona, AZ

4:39 PM MST on October 21, 2019 (GMT -0700)
Sedona

Weather History for KSEZ - August, 2019

Change the Weather History Date:

Tuesday, August 20, 2019

  Actual Average Record
Temperature  
Mean Temperature 86 °F -  
Max Temperature 100 °F 92 °F 100 °F (2019)
Min Temperature 71 °F 62 °F 59 °F (2014)
Cooling Degree Days 20    
Growing Degree Days 36 (Base 50)    
Moisture  
Dew Point 33 °F    
Average Humidity 16    
Maximum Humidity 23    
Minimum Humidity 9    
Precipitation  
Precipitation 0.00 in - - ()
Sea Level Pressure  
Sea Level Pressure 30.13 in    
Wind  
Wind Speed 8 mph (East)    
Max Wind Speed 16 mph    
Max Gust Speed 20 mph    
Visibility 10 miles    
Events      
Averages and records for this station are not official NWS values.
T = Trace of Precipitation, MM = Missing Value Source: NWS Daily Summary

Daily Weather History Graph

Daily Weather History Graph

Search for Another Location

Airport or City:

Astronomy

Aug. 20, 2019 Rise Set
Actual Time 5:51 AM MST 7:09 PM MST
Civil Twilight 5:24 AM MST 7:35 PM MST
Nautical Twilight 4:53 AM MST 8:07 PM MST
Astronomical Twilight 4:20 AM MST 8:40 PM MST
Moon 10:11 PM MST (8/20) 10:22 AM MST (8/20)
Length of Visible Light 14h 11m
Length of Day
13h 18m
Waning Gibbous, 77% of the Moon is Illuminated
Aug 20
Waning Gibbous
Aug 23
Last Quarter
Aug 30
New
Sep 5
First Quarter
Sep 13
Full

Hourly Weather History & Observations

Time (MST) Temp. Dew Point Humidity Pressure Visibility Wind Dir Wind Speed Gust Speed Precip Events Conditions
12:15 AM 75.2 °F 32.0 °F 21% 30.14 in 10.0 mi NNE 8.1 mph - N/A   Clear
12:35 AM 77.0 °F 32.0 °F 19% 30.14 in 10.0 mi North 8.1 mph - N/A   Clear
12:55 AM 75.2 °F 32.0 °F 21% 30.14 in 10.0 mi NNE 9.2 mph - N/A   Clear
1:55 AM 73.4 °F 32.0 °F 22% 30.13 in 10.0 mi North 11.5 mph - N/A   Clear
2:15 AM 73.4 °F 32.0 °F 22% 30.13 in 10.0 mi NNE 10.4 mph - N/A   Clear
2:35 AM 73.4 °F 32.0 °F 22% 30.13 in 10.0 mi NNE 12.7 mph - N/A   Clear
2:55 AM 73.4 °F 32.0 °F 22% 30.13 in 10.0 mi NNE 10.4 mph - N/A   Clear
3:15 AM 71.6 °F 32.0 °F 23% 30.14 in 10.0 mi NNE 12.7 mph - N/A   Clear
3:35 AM 71.6 °F 32.0 °F 23% 30.14 in 10.0 mi NNE 12.7 mph - N/A   Clear
3:55 AM 71.6 °F 32.0 °F 23% 30.14 in 10.0 mi NNE 11.5 mph - N/A   Clear
4:15 AM 73.4 °F 32.0 °F 22% 30.14 in 10.0 mi NNE 13.8 mph - N/A   Clear
4:35 AM 73.4 °F 32.0 °F 22% 30.14 in 10.0 mi NNE 13.8 mph - N/A   Clear
4:55 AM 71.6 °F 32.0 °F 23% 30.15 in 10.0 mi NNE 12.7 mph - N/A   Clear
5:20 AM 71.6 °F 32.0 °F 23% 30.15 in 10.0 mi NNE 11.5 mph - N/A   Clear
5:35 AM 73.4 °F 32.0 °F 22% 30.15 in 10.0 mi NNE 12.7 mph - N/A   Clear
5:55 AM 73.4 °F 32.0 °F 22% 30.17 in 10.0 mi NE 11.5 mph - N/A   Clear
6:15 AM 71.6 °F 32.0 °F 23% 30.17 in 10.0 mi NE 11.5 mph - N/A   Clear
6:35 AM 73.4 °F 32.0 °F 22% 30.17 in 10.0 mi NE 13.8 mph - N/A   Clear
6:55 AM 73.4 °F 32.0 °F 22% 30.17 in 10.0 mi NE 13.8 mph - N/A   Clear
7:15 AM 75.2 °F 32.0 °F 21% 30.18 in 10.0 mi NNE 10.4 mph - N/A   Clear
7:35 AM 75.2 °F 32.0 °F 21% 30.18 in 10.0 mi NNE 12.7 mph - N/A   Clear
7:55 AM 80.6 °F 32.0 °F 17% 30.19 in 10.0 mi NE 6.9 mph - N/A   Clear
8:15 AM 78.8 °F 33.8 °F 20% 30.19 in 10.0 mi North 3.5 mph - N/A   Clear
8:35 AM 82.4 °F 32.0 °F 16% 30.19 in 10.0 mi Calm Calm - N/A   Clear
8:55 AM 82.4 °F 33.8 °F 17% 30.19 in 10.0 mi Calm Calm - N/A   Clear
9:15 AM 86.0 °F 33.8 °F 15% 30.19 in 10.0 mi SE 3.5 mph - N/A   Clear
9:35 AM 87.8 °F 35.6 °F 16% 30.18 in 10.0 mi SSE 4.6 mph - N/A   Clear
9:55 AM 89.6 °F 35.6 °F 15% 30.18 in 10.0 mi SSE 5.8 mph - N/A   Clear
10:15 AM 89.6 °F 35.6 °F 15% 30.18 in 10.0 mi SSW 3.5 mph - N/A   Clear
10:35 AM 91.4 °F 33.8 °F 13% 30.18 in 10.0 mi South 3.5 mph - N/A   Clear
10:55 AM 95.0 °F 33.8 °F 12% 30.18 in 10.0 mi SSE 5.8 mph - N/A   Clear
11:15 AM 96.8 °F 28.4 °F 9% 30.17 in 10.0 mi SSE 5.8 mph - N/A   Clear
11:35 AM 95.0 °F 30.2 °F 10% 30.17 in 10.0 mi WSW 4.6 mph - N/A   Clear
11:55 AM 95.0 °F 30.2 °F 10% 30.17 in 10.0 mi SW 9.2 mph - N/A   Clear
12:15 PM 95.0 °F 30.2 °F 10% 30.15 in 10.0 mi West 3.5 mph - N/A   Clear
12:35 PM 93.2 °F 30.2 °F 11% 30.15 in 10.0 mi West 6.9 mph - N/A   Clear
12:55 PM 95.0 °F 30.2 °F 10% 30.14 in 10.0 mi South 3.5 mph - N/A   Clear
1:15 PM 95.0 °F 30.2 °F 10% 30.14 in 10.0 mi SW 6.9 mph - N/A   Clear
1:35 PM 95.0 °F 28.4 °F 9% 30.13 in 10.0 mi West 6.9 mph - N/A   Clear
1:55 PM 96.8 °F 33.8 °F 11% 30.12 in 10.0 mi SW 4.6 mph - N/A   Clear
2:15 PM 96.8 °F 33.8 °F 11% 30.11 in 10.0 mi South 3.5 mph - N/A   Clear
3:15 PM 96.8 °F 33.8 °F 11% 30.09 in 10.0 mi Calm Calm - N/A   Clear
3:35 PM 100.4 °F 35.6 °F 11% 30.08 in 10.0 mi SE 5.8 mph 9.2 mph N/A   Clear
3:55 PM 98.6 °F 33.8 °F 10% 30.07 in 10.0 mi SSW 5.8 mph - N/A   Clear
4:15 PM 96.8 °F 32.0 °F 10% 30.07 in 10.0 mi NW 3.5 mph - N/A   Clear
4:35 PM 98.6 °F 33.8 °F 10% 30.06 in 10.0 mi South 10.4 mph - N/A   Clear
4:55 PM 96.8 °F 33.8 °F 11% 30.06 in 10.0 mi SE 16.1 mph 19.6 mph N/A   Clear
5:15 PM 96.8 °F 33.8 °F 11% 30.06 in 10.0 mi Calm Calm - N/A   Clear
5:35 PM 96.8 °F 33.8 °F 11% 30.05 in 10.0 mi SSW 5.8 mph - N/A   Clear
5:55 PM 96.8 °F 33.8 °F 11% 30.05 in 10.0 mi SW 4.6 mph - N/A   Clear
6:15 PM 95.0 °F 33.8 °F 12% 30.04 in 10.0 mi South 4.6 mph - N/A   Clear
6:35 PM 93.2 °F 33.8 °F 12% 30.05 in 10.0 mi South 9.2 mph - N/A   Clear
6:55 PM 91.4 °F 33.8 °F 13% 30.06 in 10.0 mi South 6.9 mph - N/A   Clear
7:10 PM 91.4 °F 33.8 °F 13% 30.06 in 10.0 mi SW 8.1 mph - N/A   Clear
7:50 PM 89.6 °F 35.6 °F 15% 30.07 in 10.0 mi WSW 6.9 mph - N/A   Clear
8:15 PM 87.8 °F 35.6 °F 16% 30.08 in 10.0 mi SSW 6.9 mph - N/A   Clear
8:35 PM 87.8 °F 33.8 °F 15% 30.08 in 10.0 mi WSW 8.1 mph - N/A   Clear
9:15 PM 86.0 °F 32.0 °F 14% 30.10 in 10.0 mi Calm Calm - N/A   Clear
9:35 PM 87.8 °F 32.0 °F 14% 30.10 in 10.0 mi Calm Calm - N/A   Clear
9:55 PM 86.0 °F 32.0 °F 14% 30.10 in 10.0 mi Calm Calm - N/A   Clear
10:15 PM 86.0 °F 32.0 °F 14% 30.10 in 10.0 mi SSW 3.5 mph - N/A   Clear
10:35 PM 84.2 °F 32.0 °F 15% 30.10 in 10.0 mi Calm Calm - N/A   Clear
10:55 PM 82.4 °F 32.0 °F 16% 30.10 in 10.0 mi SSW 3.5 mph - N/A   Clear
11:15 PM 82.4 °F 33.8 °F 17% 30.11 in 10.0 mi Calm Calm - N/A   Clear
11:35 PM 78.8 °F 32.0 °F 18% 30.11 in 10.0 mi North 5.8 mph - N/A   Clear
11:55 PM 78.8 °F 32.0 °F 18% 30.11 in 10.0 mi NNE 9.2 mph - N/A   Clear